Laredo, TX

4:38 PM CDT on May 22, 2017 (GMT -0500)
Laredo International

Weather History for KLRD - June, 2013

Change the Weather History Date:

Tuesday, June 25, 2013

  Actual Average Record
Temperature  
Mean Temperature 91 °F 88 °F  
Max Temperature 103 °F 99 °F 109 °F (1994)
Min Temperature 79 °F 77 °F 61 °F (1908)
Degree Days  
Heating Degree Days 0 0  
Month to date heating degree days 0 0  
Since 1 June heating degree days 0 0  
Since 1 July heating degree days 517 926  
Cooling Degree Days 26 23  
Month to date cooling degree days 575 548  
Year to date cooling degree days 1776 1691  
Since 1 June cooling degree days 575 548  
Growing Degree Days 40 (Base 50)    
Moisture  
Dew Point 68 °F    
Average Humidity 52    
Maximum Humidity 76    
Minimum Humidity 28    
Precipitation  
Precipitation 0.00 in 0.08 in 2.94 in (1959)
Month to date precipitation 2.01 1.85  
Year to date precipitation 9.09 8.72  
Sea Level Pressure  
Sea Level Pressure 29.88 in    
Wind  
Wind Speed 18 mph (SE)    
Max Wind Speed 28 mph    
Max Gust Speed 31 mph    
Visibility 9 miles    
Events      
T = Trace of Precipitation, MM = Missing Value Source: NWS Daily Summary

Daily Weather History Graph

Daily Weather History Graph

Search for Another Location

Airport or City:

Trip Planner

Search our weather history database for the weather conditions in past years. The results will help you decide how hot, cold, wet, or windy it might be!

Date:

Astronomy

Jun. 25, 2013 Rise Set
Actual Time 6:44 AM CDT 8:36 PM CDT
Civil Twilight 6:17 AM CDT 9:03 PM CDT
Nautical Twilight 5:45 AM CDT 9:35 PM CDT
Astronomical Twilight 5:11 AM CDT 10:09 PM CDT
Moon 10:40 PM CDT (6/25) 9:12 AM CDT (6/25)
Length of Visible Light 14h 45m
Length of Day
13h 52m
Waning Gibbous, 92% of the Moon is Illuminated
Jun 25
Waning Gibbous
Jun 29
Last Quarter
Jul 8
New
Jul 15
First Quarter
Jul 22
Full

Hourly Weather History & Observations

Time (CDT) Temp. Heat Index Dew Point Humidity Pressure Visibility Wind Dir Wind Speed Gust Speed Precip Events Conditions
12:56 AM 83.8 °F 88.6 °F 70.9 °F 65% 29.93 in 9.0 mi SE 18.4 mph - N/A   Unknown
1:56 AM 82.9 °F 87.5 °F 70.9 °F 67% 29.92 in 10.0 mi SE 16.1 mph 26.5 mph N/A   Clear
2:56 AM 81.9 °F 86.6 °F 72.0 °F 72% 29.92 in 10.0 mi SSE 20.7 mph 24.2 mph N/A   Clear
3:56 AM 81.0 °F 85.2 °F 72.0 °F 74% 29.91 in 9.0 mi SSE 15.0 mph - N/A   Clear
4:56 AM 81.0 °F 84.7 °F 70.9 °F 71% 29.92 in 9.0 mi SSE 16.1 mph - N/A   Clear
5:56 AM 79.9 °F - 70.9 °F 74% 29.92 in 9.0 mi SE 15.0 mph - N/A   Clear
6:56 AM 79.0 °F - 70.9 °F 76% 29.93 in 8.0 mi SE 15.0 mph - N/A   Clear
7:56 AM 79.9 °F - 70.9 °F 74% 29.94 in 7.0 mi SE 17.3 mph - N/A   Clear
8:56 AM 82.9 °F 87.0 °F 70.0 °F 65% 29.95 in 8.0 mi SSE 20.7 mph 28.8 mph N/A   Clear
9:56 AM 86.9 °F 91.0 °F 68.9 °F 55% 29.94 in 9.0 mi SSE 20.7 mph - N/A   Clear
10:56 AM 88.9 °F 92.6 °F 68.0 °F 50% 29.93 in 8.0 mi SSE 18.4 mph - N/A   Clear
11:56 AM 92.8 °F 97.6 °F 68.9 °F 45% 29.92 in 10.0 mi South 19.6 mph 27.6 mph N/A   Clear
12:56 PM 95.9 °F 100.7 °F 68.0 °F 40% 29.90 in 10.0 mi SSE 21.9 mph 27.6 mph N/A   Clear
1:56 PM 97.9 °F 102.1 °F 66.9 °F 36% 29.88 in 10.0 mi SE 12.7 mph 21.9 mph N/A   Clear
2:56 PM 99.9 °F 104.6 °F 66.9 °F 34% 29.86 in 10.0 mi South 21.9 mph 33.4 mph N/A   Unknown
3:56 PM 101.8 °F 105.6 °F 64.9 °F 30% 29.83 in 10.0 mi SSE 17.3 mph 28.8 mph N/A   Clear
4:56 PM 102.9 °F 106.1 °F 63.9 °F 28% 29.81 in 10.0 mi SE 17.3 mph - N/A   Clear
5:56 PM 101.8 °F 104.3 °F 63.0 °F 28% 29.80 in 10.0 mi SSE 18.4 mph 25.3 mph N/A   Clear
6:56 PM 101.8 °F 104.9 °F 63.9 °F 29% 29.78 in 10.0 mi SE 15.0 mph - N/A   Clear
7:56 PM 97.9 °F 101.5 °F 65.8 °F 35% 29.80 in 9.0 mi ESE 21.9 mph 25.3 mph N/A   Clear
8:56 PM 93.9 °F 95.6 °F 63.9 °F 37% 29.82 in 10.0 mi ESE 20.7 mph - N/A   Clear
9:56 PM 90.9 °F 93.1 °F 65.8 °F 43% 29.84 in 10.0 mi SE 21.9 mph 25.3 mph N/A   Clear
10:56 PM 88.0 °F 92.1 °F 68.9 °F 53% 29.86 in 10.0 mi SE 18.4 mph 27.6 mph N/A   Clear
11:56 PM 86.0 °F 90.7 °F 70.0 °F 59% 29.89 in 10.0 mi SSE 15.0 mph - N/A   Clear